Year,Month,Day,Hour,Minute,Value (Times are PST for temperature in C)
2009,09,23,00,00,17.90
2009,09,23,00,01,18.00
2009,09,23,00,02,18.10
2009,09,23,00,03,18.20
2009,09,23,00,04,18.30
2009,09,23,00,05,18.40
2009,09,23,00,06,18.50
2009,09,23,00,07,18.60
2009,09,23,00,08,18.60
2009,09,23,00,09,18.60
2009,09,23,00,10,18.70
2009,09,23,00,11,18.80
2009,09,23,00,12,19.00
2009,09,23,00,13,19.20
2009,09,23,00,14,19.40
2009,09,23,00,15,19.60
2009,09,23,00,16,19.70
2009,09,23,00,17,19.80
2009,09,23,00,18,19.90
2009,09,23,00,19,20.00
2009,09,23,00,20,20.00
2009,09,23,00,21,20.10
2009,09,23,00,22,20.10
2009,09,23,00,23,20.10
2009,09,23,00,24,20.20
2009,09,23,00,25,20.30
2009,09,23,00,26,20.40
2009,09,23,00,27,20.50
2009,09,23,00,28,20.60
2009,09,23,00,29,20.60
2009,09,23,00,30,20.70
2009,09,23,00,31,20.80
2009,09,23,00,32,20.90
2009,09,23,00,33,20.90
2009,09,23,00,34,21.00
2009,09,23,00,35,21.00
2009,09,23,00,36,21.10
2009,09,23,00,37,21.10
2009,09,23,00,38,21.10
2009,09,23,00,39,21.10
2009,09,23,00,40,21.00
2009,09,23,00,41,21.00
2009,09,23,00,42,21.00
2009,09,23,00,43,21.00
2009,09,23,00,44,21.00
2009,09,23,00,45,21.00
2009,09,23,00,46,21.00
2009,09,23,00,47,21.00
2009,09,23,00,48,20.90
2009,09,23,00,49,20.90
2009,09,23,00,50,20.90
2009,09,23,00,51,20.80
2009,09,23,00,52,20.70
2009,09,23,00,53,20.60
2009,09,23,00,54,20.50
2009,09,23,00,55,20.40
2009,09,23,00,56,20.30
2009,09,23,00,57,20.20
2009,09,23,00,58,20.10
2009,09,23,00,59,20.00
2009,09,23,01,00,19.90
2009,09,23,01,01,19.70
2009,09,23,01,02,19.50
2009,09,23,01,03,19.30
2009,09,23,01,04,19.10
2009,09,23,01,05,18.90
2009,09,23,01,06,18.80
2009,09,23,01,07,18.70
2009,09,23,01,08,18.70
2009,09,23,01,09,18.70
2009,09,23,01,10,18.80
2009,09,23,01,11,18.90
2009,09,23,01,12,19.00
2009,09,23,01,13,19.20
2009,09,23,01,14,19.40
2009,09,23,01,15,19.50
2009,09,23,01,16,19.60
2009,09,23,01,17,19.80
2009,09,23,01,18,19.80
2009,09,23,01,19,19.90
2009,09,23,01,20,19.90
2009,09,23,01,21,19.90
2009,09,23,01,22,20.00
2009,09,23,01,23,20.00
2009,09,23,01,24,20.10
2009,09,23,01,25,20.20
2009,09,23,01,26,20.20
2009,09,23,01,27,20.20
2009,09,23,01,28,20.30
2009,09,23,01,29,20.30
2009,09,23,01,30,20.30
2009,09,23,01,31,20.20
2009,09,23,01,32,20.20
2009,09,23,01,33,20.20
2009,09,23,01,34,20.20
2009,09,23,01,35,20.20
2009,09,23,01,36,20.20
2009,09,23,01,37,20.30
2009,09,23,01,38,20.30
2009,09,23,01,39,20.30
2009,09,23,01,40,20.30
2009,09,23,01,41,20.30
2009,09,23,01,42,20.30
2009,09,23,01,43,20.30
2009,09,23,01,44,20.30
2009,09,23,01,45,20.30
2009,09,23,01,46,20.30
2009,09,23,01,47,20.30
2009,09,23,01,48,20.20
2009,09,23,01,49,20.20
2009,09,23,01,50,20.20
2009,09,23,01,51,20.10
2009,09,23,01,52,20.10
2009,09,23,01,53,20.00
2009,09,23,01,54,20.00
2009,09,23,01,55,20.00
2009,09,23,01,56,19.90
2009,09,23,01,57,19.90
2009,09,23,01,58,19.90
2009,09,23,01,59,19.90
2009,09,23,02,00,19.90
2009,09,23,02,01,19.90
2009,09,23,02,02,19.90
2009,09,23,02,03,19.80
2009,09,23,02,04,19.80
2009,09,23,02,05,19.80
2009,09,23,02,06,19.80
2009,09,23,02,07,19.70
2009,09,23,02,08,19.70
2009,09,23,02,09,19.70
2009,09,23,02,10,19.70
2009,09,23,02,11,19.60
2009,09,23,02,12,19.60
2009,09,23,02,13,19.50
2009,09,23,02,14,19.50
2009,09,23,02,15,19.50
2009,09,23,02,16,19.50
2009,09,23,02,17,19.50
2009,09,23,02,18,19.50
2009,09,23,02,19,19.50
2009,09,23,02,20,19.50
2009,09,23,02,21,19.60
2009,09,23,02,22,19.60
2009,09,23,02,23,19.60
2009,09,23,02,24,19.60
2009,09,23,02,25,19.60
2009,09,23,02,26,19.60
2009,09,23,02,27,19.60
2009,09,23,02,28,19.60
2009,09,23,02,29,19.60
2009,09,23,02,30,19.60
2009,09,23,02,31,19.60
2009,09,23,02,32,19.60
2009,09,23,02,33,19.60
2009,09,23,02,34,19.70
2009,09,23,02,35,19.70
2009,09,23,02,36,19.70
2009,09,23,02,37,19.70
2009,09,23,02,38,19.70
2009,09,23,02,39,19.70
2009,09,23,02,40,19.70
2009,09,23,02,41,19.70
2009,09,23,02,42,19.70
2009,09,23,02,43,19.80
2009,09,23,02,44,19.80
2009,09,23,02,45,19.90
2009,09,23,02,46,19.90
2009,09,23,02,47,19.90
2009,09,23,02,48,19.90
2009,09,23,02,49,20.00
2009,09,23,02,50,19.90
2009,09,23,02,51,19.90
2009,09,23,02,52,19.90
2009,09,23,02,53,20.00
2009,09,23,02,54,20.20
2009,09,23,02,55,20.30
2009,09,23,02,56,20.30
2009,09,23,02,57,20.40
2009,09,23,02,58,20.50
2009,09,23,02,59,20.60
2009,09,23,03,00,20.60
2009,09,23,03,01,20.60
2009,09,23,03,02,20.60
2009,09,23,03,03,20.60
2009,09,23,03,04,20.60
2009,09,23,03,05,20.50
2009,09,23,03,06,20.50
2009,09,23,03,07,20.50
2009,09,23,03,08,20.50
2009,09,23,03,09,20.60
2009,09,23,03,10,20.60
2009,09,23,03,11,20.60
2009,09,23,03,12,20.60
2009,09,23,03,13,20.70
2009,09,23,03,14,20.70
2009,09,23,03,15,20.70
2009,09,23,03,16,20.60
2009,09,23,03,17,20.60
2009,09,23,03,18,20.60
2009,09,23,03,19,20.60
2009,09,23,03,20,20.50
2009,09,23,03,21,20.50
2009,09,23,03,22,20.60
2009,09,23,03,23,20.60
2009,09,23,03,24,20.60
2009,09,23,03,25,20.50
2009,09,23,03,26,20.40
2009,09,23,03,27,20.40
2009,09,23,03,28,20.40
2009,09,23,03,29,20.40
2009,09,23,03,30,20.50
2009,09,23,03,31,20.50
2009,09,23,03,32,20.50
2009,09,23,03,33,20.40
2009,09,23,03,34,20.50
2009,09,23,03,35,20.50
2009,09,23,03,36,20.60
2009,09,23,03,37,20.60
2009,09,23,03,38,20.60
2009,09,23,03,39,20.60
2009,09,23,03,40,20.60
2009,09,23,03,41,20.60
2009,09,23,03,42,20.60
2009,09,23,03,43,20.60
2009,09,23,03,44,20.60
2009,09,23,03,45,20.50
2009,09,23,03,46,20.50
2009,09,23,03,47,20.50
2009,09,23,03,48,20.50
2009,09,23,03,49,20.40
2009,09,23,03,50,20.40
2009,09,23,03,51,20.40
2009,09,23,03,52,20.50
2009,09,23,03,53,20.50
2009,09,23,03,54,20.40
2009,09,23,03,55,20.40
2009,09,23,03,56,20.40
2009,09,23,03,57,20.40
2009,09,23,03,58,20.30
2009,09,23,03,59,20.30
2009,09,23,04,00,20.30
2009,09,23,04,01,20.20
2009,09,23,04,02,20.20
2009,09,23,04,03,20.20
2009,09,23,04,04,20.10
2009,09,23,04,05,20.20
2009,09,23,04,06,20.10
2009,09,23,04,07,20.10
2009,09,23,04,08,20.00
2009,09,23,04,09,19.90
2009,09,23,04,10,20.00
2009,09,23,04,11,20.10
2009,09,23,04,12,20.10
2009,09,23,04,13,20.20
2009,09,23,04,14,20.20
2009,09,23,04,15,20.20
2009,09,23,04,16,20.20
2009,09,23,04,17,20.10
2009,09,23,04,18,20.30
2009,09,23,04,19,20.30
2009,09,23,04,20,20.30
2009,09,23,04,21,20.20
2009,09,23,04,22,20.10
2009,09,23,04,23,20.10
2009,09,23,04,24,20.00
2009,09,23,04,25,20.00
2009,09,23,04,26,19.90
2009,09,23,04,27,19.90
2009,09,23,04,28,19.90
2009,09,23,04,29,20.00
2009,09,23,04,30,19.90
2009,09,23,04,31,19.90
2009,09,23,04,32,19.90
2009,09,23,04,33,19.80
2009,09,23,04,34,19.80
2009,09,23,04,35,19.80
2009,09,23,04,36,19.80
2009,09,23,04,37,19.70
2009,09,23,04,38,19.70
2009,09,23,04,39,19.60
2009,09,23,04,40,19.50
2009,09,23,04,41,19.40
2009,09,23,04,42,19.30
2009,09,23,04,43,19.30
2009,09,23,04,44,19.20
2009,09,23,04,45,19.20
2009,09,23,04,46,19.20
2009,09,23,04,47,19.10
2009,09,23,04,48,19.10
2009,09,23,04,49,19.10
2009,09,23,04,50,19.00
2009,09,23,04,51,19.00
2009,09,23,04,52,18.90
2009,09,23,04,53,18.90
2009,09,23,04,54,18.90
2009,09,23,04,55,18.90
2009,09,23,04,56,18.90
2009,09,23,04,57,18.90
2009,09,23,04,58,18.90
2009,09,23,04,59,18.90
2009,09,23,05,00,18.90
2009,09,23,05,01,18.80
2009,09,23,05,02,18.80
2009,09,23,05,03,18.80
2009,09,23,05,04,18.70
2009,09,23,05,05,18.70
2009,09,23,05,06,18.60
2009,09,23,05,07,18.50
2009,09,23,05,08,18.50
2009,09,23,05,09,18.40
2009,09,23,05,10,18.40
2009,09,23,05,11,18.50
2009,09,23,05,12,18.50
2009,09,23,05,13,18.60
2009,09,23,05,14,18.60
2009,09,23,05,15,18.60
2009,09,23,05,16,18.70
2009,09,23,05,17,18.70
2009,09,23,05,18,18.70
2009,09,23,05,19,18.80
2009,09,23,05,20,18.80
2009,09,23,05,21,18.80
2009,09,23,05,22,18.90
2009,09,23,05,23,18.90
2009,09,23,05,24,18.90
2009,09,23,05,25,19.00
2009,09,23,05,26,19.00
2009,09,23,05,27,19.10
2009,09,23,05,28,19.00
2009,09,23,05,29,19.00
2009,09,23,05,30,19.00
2009,09,23,05,31,18.90
2009,09,23,05,32,18.90
2009,09,23,05,33,18.90
2009,09,23,05,34,18.90
2009,09,23,05,35,18.90
2009,09,23,05,36,18.90
2009,09,23,05,37,18.90
2009,09,23,05,38,18.90
2009,09,23,05,39,18.90
2009,09,23,05,40,18.90
2009,09,23,05,41,18.90
2009,09,23,05,42,18.90
2009,09,23,05,43,18.90
2009,09,23,05,44,18.90
2009,09,23,05,45,18.90
2009,09,23,05,46,18.90
2009,09,23,05,47,18.90
2009,09,23,05,48,18.80
2009,09,23,05,49,18.80
2009,09,23,05,50,18.80
2009,09,23,05,51,18.70
2009,09,23,05,52,18.60
2009,09,23,05,53,18.40
2009,09,23,05,54,18.30
2009,09,23,05,55,18.30
2009,09,23,05,56,18.30
2009,09,23,05,57,18.30
2009,09,23,05,58,18.40
2009,09,23,05,59,18.50
2009,09,23,06,00,18.50
2009,09,23,06,01,18.60
2009,09,23,06,02,18.70
2009,09,23,06,03,18.80
2009,09,23,06,04,18.90
2009,09,23,06,05,19.10
2009,09,23,06,06,19.20
2009,09,23,06,07,19.30
2009,09,23,06,08,19.30
2009,09,23,06,09,19.40
2009,09,23,06,10,19.60
2009,09,23,06,11,19.70
2009,09,23,06,12,19.80
2009,09,23,06,13,19.90
2009,09,23,06,14,20.00
2009,09,23,06,15,20.10
2009,09,23,06,16,20.10
2009,09,23,06,17,20.20
2009,09,23,06,18,20.20
2009,09,23,06,19,20.20
2009,09,23,06,20,20.20
2009,09,23,06,21,20.20
2009,09,23,06,22,20.30
2009,09,23,06,23,20.30
2009,09,23,06,24,20.20
2009,09,23,06,25,20.20
2009,09,23,06,26,20.20
2009,09,23,06,27,20.20
2009,09,23,06,28,20.20
2009,09,23,06,29,20.20
2009,09,23,06,30,20.10
2009,09,23,06,31,20.10
2009,09,23,06,32,20.10
2009,09,23,06,33,20.00
2009,09,23,06,34,20.00
2009,09,23,06,35,19.90
2009,09,23,06,36,19.90
2009,09,23,06,37,19.80
2009,09,23,06,38,19.60
2009,09,23,06,39,19.50
2009,09,23,06,40,19.40
2009,09,23,06,41,19.20
2009,09,23,06,42,19.00
2009,09,23,06,43,18.80
2009,09,23,06,44,18.60
2009,09,23,06,45,18.40
2009,09,23,06,46,18.20
2009,09,23,06,47,18.00
2009,09,23,06,48,17.80
2009,09,23,06,49,17.70
2009,09,23,06,50,17.50
2009,09,23,06,51,17.40
2009,09,23,06,52,17.30
2009,09,23,06,53,17.30
2009,09,23,06,54,17.30
2009,09,23,06,55,17.30
2009,09,23,06,56,17.30
2009,09,23,06,57,17.30
2009,09,23,06,58,17.30
2009,09,23,06,59,17.30
2009,09,23,07,00,17.30
2009,09,23,07,01,17.30
2009,09,23,07,02,17.30
2009,09,23,07,03,17.20
2009,09,23,07,04,17.10
2009,09,23,07,05,17.10
2009,09,23,07,06,17.10
2009,09,23,07,07,17.20
2009,09,23,07,08,17.20
2009,09,23,07,09,17.20
2009,09,23,07,10,17.30
2009,09,23,07,11,17.30
2009,09,23,07,12,17.30
2009,09,23,07,13,17.40
2009,09,23,07,14,17.50
2009,09,23,07,15,17.60
2009,09,23,07,16,17.70
2009,09,23,07,17,17.80
2009,09,23,07,18,17.80
2009,09,23,07,19,17.90
2009,09,23,07,20,17.90
2009,09,23,07,21,17.90
2009,09,23,07,22,17.90
2009,09,23,07,23,18.00
2009,09,23,07,24,18.00
2009,09,23,07,25,18.00
2009,09,23,07,26,18.00
2009,09,23,07,27,18.00
2009,09,23,07,28,17.90
2009,09,23,07,29,17.90
2009,09,23,07,30,17.90
2009,09,23,07,31,17.90
2009,09,23,07,32,18.00
2009,09,23,07,33,18.00
2009,09,23,07,34,18.00
2009,09,23,07,35,18.00
2009,09,23,07,36,18.00
2009,09,23,07,37,17.90
2009,09,23,07,38,17.90
2009,09,23,07,39,17.90
2009,09,23,07,40,18.00
2009,09,23,07,41,18.00
2009,09,23,07,42,18.00
2009,09,23,07,43,18.00
2009,09,23,07,44,18.00
2009,09,23,07,45,17.90
2009,09,23,07,46,18.00
2009,09,23,07,47,18.00
2009,09,23,07,48,18.10
2009,09,23,07,49,18.10
2009,09,23,07,50,18.10
2009,09,23,07,51,18.20
2009,09,23,07,52,18.20
2009,09,23,07,53,18.20
2009,09,23,07,54,18.20
2009,09,23,07,55,18.20
2009,09,23,07,56,18.20
2009,09,23,07,57,18.20
2009,09,23,07,58,18.30
2009,09,23,07,59,18.30
2009,09,23,08,00,18.30
2009,09,23,08,01,18.30
2009,09,23,08,02,18.30
2009,09,23,08,03,18.30
2009,09,23,08,04,18.40
2009,09,23,08,05,18.40
2009,09,23,08,06,18.50
2009,09,23,08,07,18.60
2009,09,23,08,08,18.70
2009,09,23,08,09,18.70
2009,09,23,08,10,18.80
2009,09,23,08,11,18.80
2009,09,23,08,12,18.90
2009,09,23,08,13,18.90
2009,09,23,08,14,18.90
2009,09,23,08,15,19.00
2009,09,23,08,16,19.00
2009,09,23,08,17,19.00
2009,09,23,08,18,19.00
2009,09,23,08,19,19.00
2009,09,23,08,20,19.10
2009,09,23,08,21,19.10
2009,09,23,08,22,19.10
2009,09,23,08,23,19.10
2009,09,23,08,24,19.20
2009,09,23,08,25,19.30
2009,09,23,08,26,19.40
2009,09,23,08,27,19.50
2009,09,23,08,28,19.60
2009,09,23,08,29,19.70
2009,09,23,08,30,19.80
2009,09,23,08,31,19.90
2009,09,23,08,32,19.90
2009,09,23,08,33,20.00
2009,09,23,08,34,20.10
2009,09,23,08,35,20.30
2009,09,23,08,36,20.40
2009,09,23,08,37,20.60
2009,09,23,08,38,20.70
2009,09,23,08,39,20.90
2009,09,23,08,40,21.00
2009,09,23,08,41,21.20
2009,09,23,08,42,21.30
2009,09,23,08,43,21.40
2009,09,23,08,44,21.50
2009,09,23,08,45,21.50
2009,09,23,08,46,21.30
2009,09,23,08,47,21.10
2009,09,23,08,48,21.00
2009,09,23,08,49,20.90
2009,09,23,08,50,20.80
2009,09,23,08,51,20.80
2009,09,23,08,52,20.80
2009,09,23,08,53,20.80
2009,09,23,08,54,20.80
2009,09,23,08,55,20.80
2009,09,23,08,56,20.70
2009,09,23,08,57,20.70
2009,09,23,08,58,20.60
2009,09,23,08,59,20.50
2009,09,23,09,00,20.50
2009,09,23,09,01,20.40
2009,09,23,09,02,20.30
2009,09,23,09,03,20.20
2009,09,23,09,04,20.00
2009,09,23,09,05,19.90
2009,09,23,09,06,19.90
2009,09,23,09,07,19.80
2009,09,23,09,08,19.70
2009,09,23,09,09,19.60
2009,09,23,09,10,19.50
2009,09,23,09,11,19.50
2009,09,23,09,12,19.40
2009,09,23,09,13,19.40
2009,09,23,09,14,19.40
2009,09,23,09,15,19.30
2009,09,23,09,16,19.30
2009,09,23,09,17,19.30
2009,09,23,09,18,19.40
2009,09,23,09,19,19.40
2009,09,23,09,20,19.40
2009,09,23,09,21,19.40
2009,09,23,09,22,19.40
2009,09,23,09,23,19.50
2009,09,23,09,24,19.50
2009,09,23,09,25,19.60
2009,09,23,09,26,19.70
2009,09,23,09,27,19.90
2009,09,23,09,28,20.00
2009,09,23,09,29,20.10
2009,09,23,09,30,20.20
2009,09,23,09,31,20.30
2009,09,23,09,32,20.40
2009,09,23,09,33,20.50
2009,09,23,09,34,20.50
2009,09,23,09,35,20.60
2009,09,23,09,36,20.60
2009,09,23,09,37,20.70
2009,09,23,09,38,20.80
2009,09,23,09,39,20.80
2009,09,23,09,40,20.80
2009,09,23,09,41,20.90
2009,09,23,09,42,20.90
2009,09,23,09,43,20.90
2009,09,23,09,44,20.90
2009,09,23,09,45,20.90
2009,09,23,09,46,21.00
2009,09,23,09,47,21.00
2009,09,23,09,48,21.00
2009,09,23,09,49,21.10
2009,09,23,09,50,21.10
2009,09,23,09,51,21.00
2009,09,23,09,52,21.00
2009,09,23,09,53,21.00
2009,09,23,09,54,21.00
2009,09,23,09,55,21.00
2009,09,23,09,56,21.00
2009,09,23,09,57,21.10
2009,09,23,09,58,21.10
2009,09,23,09,59,21.00
2009,09,23,10,00,21.00
2009,09,23,10,01,21.00
2009,09,23,10,02,20.90
2009,09,23,10,03,20.90
2009,09,23,10,04,21.00
2009,09,23,10,05,21.00
2009,09,23,10,06,21.20
2009,09,23,10,07,21.30
2009,09,23,10,08,21.30
2009,09,23,10,09,21.40
2009,09,23,10,10,21.40
2009,09,23,10,11,21.40
2009,09,23,10,12,21.50
2009,09,23,10,13,21.50
2009,09,23,10,14,21.60
2009,09,23,10,15,21.60
2009,09,23,10,16,21.60
2009,09,23,10,17,21.50
2009,09,23,10,18,21.50
2009,09,23,10,19,21.50
2009,09,23,10,20,21.40
2009,09,23,10,21,21.30
2009,09,23,10,22,21.20
2009,09,23,10,23,21.20
2009,09,23,10,24,21.10
2009,09,23,10,25,21.20
2009,09,23,10,26,21.20
2009,09,23,10,27,21.20
2009,09,23,10,28,21.20
2009,09,23,10,29,21.20
2009,09,23,10,30,21.10
2009,09,23,10,31,21.10
2009,09,23,10,32,21.10
2009,09,23,10,33,21.10
2009,09,23,10,34,21.00
2009,09,23,10,35,21.00
2009,09,23,10,36,21.10
2009,09,23,10,37,21.10
2009,09,23,10,38,21.10
2009,09,23,10,39,21.20
2009,09,23,10,40,21.30
2009,09,23,10,41,21.40
2009,09,23,10,42,21.40
2009,09,23,10,43,21.40
2009,09,23,10,44,21.30
2009,09,23,10,45,21.20
2009,09,23,10,46,21.10
2009,09,23,10,47,21.10
2009,09,23,10,48,21.10
2009,09,23,10,49,21.20
2009,09,23,10,50,21.20
2009,09,23,10,51,21.30
2009,09,23,10,52,21.40
2009,09,23,10,53,21.60
2009,09,23,10,54,21.70
2009,09,23,10,55,21.70
2009,09,23,10,56,21.80
2009,09,23,10,57,21.80
2009,09,23,10,58,21.80
2009,09,23,10,59,21.80
2009,09,23,11,00,21.80
2009,09,23,11,01,21.80
2009,09,23,11,02,21.70
2009,09,23,11,03,21.60
2009,09,23,11,04,21.60
2009,09,23,11,05,21.60
2009,09,23,11,06,21.50
2009,09,23,11,07,21.50
2009,09,23,11,08,21.60
2009,09,23,11,09,21.60
2009,09,23,11,10,21.50
2009,09,23,11,11,21.40
2009,09,23,11,12,21.40
2009,09,23,11,13,21.40
2009,09,23,11,14,21.30
2009,09,23,11,15,21.40
2009,09,23,11,16,21.40
2009,09,23,11,17,21.50
2009,09,23,11,18,21.60
2009,09,23,11,19,21.70
2009,09,23,11,20,21.80
2009,09,23,11,21,21.90
2009,09,23,11,22,22.00
2009,09,23,11,23,22.00
2009,09,23,11,24,22.00
2009,09,23,11,25,22.00
2009,09,23,11,26,21.90
2009,09,23,11,27,21.90
2009,09,23,11,28,21.90
2009,09,23,11,29,21.90
2009,09,23,11,30,22.00
2009,09,23,11,31,22.00
2009,09,23,11,32,22.10
2009,09,23,11,33,22.10
2009,09,23,11,34,22.10
2009,09,23,11,35,22.10
2009,09,23,11,36,22.20
2009,09,23,11,37,22.30
2009,09,23,11,38,22.30
2009,09,23,11,39,22.40
2009,09,23,11,40,22.50
2009,09,23,11,41,22.50
2009,09,23,11,42,22.50
2009,09,23,11,43,22.50
2009,09,23,11,44,22.60
2009,09,23,11,45,22.60
2009,09,23,11,46,22.70
2009,09,23,11,47,22.70
2009,09,23,11,48,22.80
2009,09,23,11,49,22.90
2009,09,23,11,50,23.00
2009,09,23,11,51,23.00
2009,09,23,11,52,23.10
2009,09,23,11,53,23.10
2009,09,23,11,54,23.20
2009,09,23,11,55,23.40
2009,09,23,11,56,23.60
2009,09,23,11,57,23.80
2009,09,23,11,58,23.90
2009,09,23,11,59,24.10
2009,09,23,12,00,24.20
2009,09,23,12,01,24.40
2009,09,23,12,02,24.50
2009,09,23,12,03,24.60
2009,09,23,12,04,24.60
2009,09,23,12,05,24.70
2009,09,23,12,06,24.70
2009,09,23,12,07,24.60
2009,09,23,12,08,24.60
2009,09,23,12,09,24.50
2009,09,23,12,10,24.60
2009,09,23,12,11,24.60
2009,09,23,12,12,24.70
2009,09,23,12,13,24.70
2009,09,23,12,14,24.60
2009,09,23,12,15,24.60
2009,09,23,12,16,24.50
2009,09,23,12,17,24.40
2009,09,23,12,18,24.20
2009,09,23,12,19,24.10
2009,09,23,12,20,24.00
2009,09,23,12,21,24.00
2009,09,23,12,22,23.90
2009,09,23,12,23,23.90
2009,09,23,12,24,23.80
2009,09,23,12,25,23.70
2009,09,23,12,26,23.80
2009,09,23,12,27,23.80
2009,09,23,12,28,23.90
2009,09,23,12,29,23.90
2009,09,23,12,30,24.00
2009,09,23,12,31,24.00
2009,09,23,12,32,24.10
2009,09,23,12,33,24.10
2009,09,23,12,34,24.20
2009,09,23,12,35,24.20
2009,09,23,12,36,24.30
2009,09,23,12,37,24.30
2009,09,23,12,38,24.40
2009,09,23,12,39,24.40
2009,09,23,12,40,24.50
2009,09,23,12,41,24.50
2009,09,23,12,42,24.60
2009,09,23,12,43,24.60
2009,09,23,12,44,24.50
2009,09,23,12,45,24.40
2009,09,23,12,46,24.40
2009,09,23,12,47,24.40
2009,09,23,12,48,24.50
2009,09,23,12,49,24.60
2009,09,23,12,50,24.60
2009,09,23,12,51,24.60
2009,09,23,12,52,24.60
2009,09,23,12,53,24.70
2009,09,23,12,54,24.70
2009,09,23,12,55,24.60
2009,09,23,12,56,24.60
2009,09,23,12,57,24.60
2009,09,23,12,58,24.70
2009,09,23,12,59,24.70
2009,09,23,13,00,24.80
2009,09,23,13,01,24.80
2009,09,23,13,02,24.80
2009,09,23,13,03,24.90
2009,09,23,13,04,24.80
2009,09,23,13,05,24.90
2009,09,23,13,06,24.90
2009,09,23,13,07,24.80
2009,09,23,13,08,24.80
2009,09,23,13,09,24.70
2009,09,23,13,10,24.70
2009,09,23,13,11,24.80
2009,09,23,13,12,24.80
2009,09,23,13,13,24.90
2009,09,23,13,14,24.90
2009,09,23,13,15,24.80
2009,09,23,13,16,24.80
2009,09,23,13,17,24.80
2009,09,23,13,18,24.80
2009,09,23,13,19,24.80
2009,09,23,13,20,24.80
2009,09,23,13,21,24.70
2009,09,23,13,22,24.60
2009,09,23,13,23,24.60
2009,09,23,13,24,24.60
2009,09,23,13,25,24.60
2009,09,23,13,26,24.50
2009,09,23,13,27,24.50
2009,09,23,13,28,24.50
2009,09,23,13,29,24.40
2009,09,23,13,30,24.40
2009,09,23,13,31,24.40
2009,09,23,13,32,24.40
2009,09,23,13,33,24.50
2009,09,23,13,34,24.50
2009,09,23,13,35,24.60
2009,09,23,13,36,24.70
2009,09,23,13,37,24.70
2009,09,23,13,38,24.80
2009,09,23,13,39,24.80
2009,09,23,13,40,24.80
2009,09,23,13,41,24.70
2009,09,23,13,42,24.60
2009,09,23,13,43,24.60
2009,09,23,13,44,24.60
2009,09,23,13,45,24.50
2009,09,23,13,46,24.40
2009,09,23,13,47,24.40
2009,09,23,13,48,24.30
2009,09,23,13,49,24.30
2009,09,23,13,50,24.30
2009,09,23,13,51,24.40
2009,09,23,13,52,24.50
2009,09,23,13,53,24.50
2009,09,23,13,54,24.60
2009,09,23,13,55,24.60
2009,09,23,13,56,24.70
2009,09,23,13,57,24.70
2009,09,23,13,58,24.70
2009,09,23,13,59,24.70
2009,09,23,14,00,24.70
2009,09,23,14,01,24.70
2009,09,23,14,02,24.80
2009,09,23,14,03,24.80
2009,09,23,14,04,24.80
2009,09,23,14,05,24.80
2009,09,23,14,06,24.70
2009,09,23,14,07,24.70
2009,09,23,14,08,24.60
2009,09,23,14,09,24.50
2009,09,23,14,10,24.50
2009,09,23,14,11,24.60
2009,09,23,14,12,24.60
2009,09,23,14,13,24.60
2009,09,23,14,14,24.60
2009,09,23,14,15,24.60
2009,09,23,14,16,24.60
2009,09,23,14,17,24.60
2009,09,23,14,18,24.60
2009,09,23,14,19,24.50
2009,09,23,14,20,24.50
2009,09,23,14,21,24.40
2009,09,23,14,22,24.40
2009,09,23,14,23,24.50
2009,09,23,14,24,24.50
2009,09,23,14,25,24.60
2009,09,23,14,26,24.70
2009,09,23,14,27,24.70
2009,09,23,14,28,24.60
2009,09,23,14,29,24.60
2009,09,23,14,30,24.60
2009,09,23,14,31,24.60
2009,09,23,14,32,24.60
2009,09,23,14,33,24.60
2009,09,23,14,34,24.60
2009,09,23,14,35,24.60
2009,09,23,14,36,24.70
2009,09,23,14,37,24.60
2009,09,23,14,38,24.60
2009,09,23,14,39,24.60
2009,09,23,14,40,24.60
2009,09,23,14,41,24.60
2009,09,23,14,42,24.60
2009,09,23,14,43,24.60
2009,09,23,14,44,24.60
2009,09,23,14,45,24.70
2009,09,23,14,46,24.70
2009,09,23,14,47,24.70
2009,09,23,14,48,24.80
2009,09,23,14,49,24.90
2009,09,23,14,50,24.80
2009,09,23,14,51,24.80
2009,09,23,14,52,24.70
2009,09,23,14,53,24.70
2009,09,23,14,54,24.70
2009,09,23,14,55,24.70
2009,09,23,14,56,24.70
2009,09,23,14,57,24.70
2009,09,23,14,58,24.70
2009,09,23,14,59,24.70
2009,09,23,15,00,24.70
2009,09,23,15,01,24.70
2009,09,23,15,02,24.80
2009,09,23,15,03,24.80
2009,09,23,15,04,24.80
2009,09,23,15,05,24.80
2009,09,23,15,06,24.80
2009,09,23,15,07,24.90
2009,09,23,15,08,24.90
2009,09,23,15,09,24.90
2009,09,23,15,10,24.80
2009,09,23,15,11,24.80
2009,09,23,15,12,24.80
2009,09,23,15,13,24.70
2009,09,23,15,14,24.70
2009,09,23,15,15,24.70
2009,09,23,15,16,24.80
2009,09,23,15,17,24.80
2009,09,23,15,18,24.90
2009,09,23,15,19,25.00
2009,09,23,15,20,25.10
2009,09,23,15,21,25.10
2009,09,23,15,22,25.10
2009,09,23,15,23,25.20
2009,09,23,15,24,25.20
2009,09,23,15,25,25.20
2009,09,23,15,26,25.20
2009,09,23,15,27,25.10
2009,09,23,15,28,25.10
2009,09,23,15,29,25.10
2009,09,23,15,30,25.00
2009,09,23,15,31,25.00
2009,09,23,15,32,25.00
2009,09,23,15,33,25.00
2009,09,23,15,34,25.00
2009,09,23,15,35,24.90
2009,09,23,15,36,24.80
2009,09,23,15,37,24.80
2009,09,23,15,38,24.80
2009,09,23,15,39,24.80
2009,09,23,15,40,24.80
2009,09,23,15,41,24.80
2009,09,23,15,42,24.80
2009,09,23,15,43,24.80
2009,09,23,15,44,24.80
2009,09,23,15,45,24.80
2009,09,23,15,46,24.80
2009,09,23,15,47,24.90
2009,09,23,15,48,25.00
2009,09,23,15,49,25.10
2009,09,23,15,50,25.00
2009,09,23,15,51,25.00
2009,09,23,15,52,24.90
2009,09,23,15,53,24.90
2009,09,23,15,54,24.90
2009,09,23,15,55,24.90
2009,09,23,15,56,24.90
2009,09,23,15,57,24.90
2009,09,23,15,58,25.00
2009,09,23,15,59,25.00
2009,09,23,16,00,25.00
2009,09,23,16,01,25.00
2009,09,23,16,02,25.00
2009,09,23,16,03,24.90
2009,09,23,16,04,24.90
2009,09,23,16,05,24.90
2009,09,23,16,06,24.90
2009,09,23,16,07,24.90
2009,09,23,16,08,25.00
2009,09,23,16,09,25.00
2009,09,23,16,10,25.10
2009,09,23,16,11,25.10
2009,09,23,16,12,25.10
2009,09,23,16,13,25.20
2009,09,23,16,14,25.20
2009,09,23,16,15,25.30
2009,09,23,16,16,25.30
2009,09,23,16,17,25.20
2009,09,23,16,18,25.20
2009,09,23,16,19,25.20
2009,09,23,16,20,25.20
2009,09,23,16,21,25.10
2009,09,23,16,22,25.10
2009,09,23,16,23,25.20
2009,09,23,16,24,25.20
2009,09,23,16,25,25.10
2009,09,23,16,26,25.10
2009,09,23,16,27,25.10
2009,09,23,16,28,25.10
2009,09,23,16,29,25.10
2009,09,23,16,30,25.10
2009,09,23,16,31,25.10
2009,09,23,16,32,25.10
2009,09,23,16,33,25.10
2009,09,23,16,34,25.10
2009,09,23,16,35,25.10
2009,09,23,16,36,25.00
2009,09,23,16,37,25.00
2009,09,23,16,38,25.00
2009,09,23,16,39,24.90
2009,09,23,16,40,25.00
2009,09,23,16,41,25.00
2009,09,23,16,42,25.00
2009,09,23,16,43,24.90
2009,09,23,16,44,24.80
2009,09,23,16,45,24.70
2009,09,23,16,46,24.70
2009,09,23,16,47,24.70
2009,09,23,16,48,24.70
2009,09,23,16,49,24.60
2009,09,23,16,50,24.60
2009,09,23,16,51,24.60
2009,09,23,16,52,24.60
2009,09,23,16,53,24.60
2009,09,23,16,54,24.60
2009,09,23,16,55,24.60
2009,09,23,16,56,24.60
2009,09,23,16,57,24.60
2009,09,23,16,58,24.60
2009,09,23,16,59,24.60
2009,09,23,17,00,24.60
2009,09,23,17,01,24.60
2009,09,23,17,02,24.60
2009,09,23,17,03,24.60
2009,09,23,17,04,24.60
2009,09,23,17,05,24.60
2009,09,23,17,06,24.60
2009,09,23,17,07,24.60
2009,09,23,17,08,24.60
2009,09,23,17,09,24.50
2009,09,23,17,10,24.50
2009,09,23,17,11,24.40
2009,09,23,17,12,24.40
2009,09,23,17,13,24.50
2009,09,23,17,14,24.50
2009,09,23,17,15,24.50
2009,09,23,17,16,24.50
2009,09,23,17,17,24.50
2009,09,23,17,18,24.50
2009,09,23,17,19,24.50